Time,TemperatureF,DewpointF,PressureIn,WindDirection,WindDirectionDegrees,WindSpeedMPH,WindSpeedGustMPH,Humidity,HourlyPrecipIn,Conditions,Clouds,dailyrainin,SoftwareType,DateUTC
2013-06-11 00:10:00,68.7,68.1,29.74,NE,45,1.1,-999.0,98,-99.99,,,0.00,Acu-Link.com,2013-06-11 04:10:00,
2013-06-11 00:25:00,68.5,67.9,29.74,NNE,22,1.7,-999.0,98,-99.99,,,0.00,Acu-Link.com,2013-06-11 04:25:00,
2013-06-11 00:41:00,68.2,67.6,29.74,NE,45,0.0,-999.0,98,-99.99,,,0.00,Acu-Link.com,2013-06-11 04:41:00,
2013-06-11 00:56:00,67.8,67.2,29.73,North,0,0.0,-999.0,98,-99.99,,,0.00,Acu-Link.com,2013-06-11 04:56:00,
2013-06-11 01:11:00,67.8,67.2,29.74,SE,135,0.0,-999.0,98,-99.99,,,0.00,Acu-Link.com,2013-06-11 05:11:00,
2013-06-11 01:27:00,67.5,66.9,29.74,South,180,0.0,-999.0,98,-99.99,,,0.00,Acu-Link.com,2013-06-11 05:27:00,
2013-06-11 01:42:00,67.5,66.9,29.74,SE,135,0.0,-999.0,98,-99.99,,,0.00,Acu-Link.com,2013-06-11 05:42:00,
2013-06-11 01:57:00,67.1,66.5,29.75,SE,135,0.0,-999.0,98,-99.99,,,0.00,Acu-Link.com,2013-06-11 05:57:00,
2013-06-11 02:13:00,66.9,66.3,29.74,SE,135,0.0,-999.0,98,-99.99,,,0.00,Acu-Link.com,2013-06-11 06:13:00,
2013-06-11 02:28:00,66.7,66.1,29.74,NNE,22,1.7,-999.0,98,-99.99,,,0.00,Acu-Link.com,2013-06-11 06:28:00,
2013-06-11 02:43:00,66.6,66.0,29.74,NNE,22,0.0,-999.0,98,-99.99,,,0.00,Acu-Link.com,2013-06-11 06:43:00,
2013-06-11 02:59:00,66.2,65.6,29.74,NW,315,0.0,-999.0,98,-99.99,,,0.00,Acu-Link.com,2013-06-11 06:59:00,
2013-06-11 03:14:00,66.2,65.6,29.74,SSW,202,1.1,-999.0,98,-99.99,,,0.00,Acu-Link.com,2013-06-11 07:14:00,
2013-06-11 03:29:00,66.0,65.4,29.75,NNE,22,0.0,-999.0,98,-99.99,,,0.00,Acu-Link.com,2013-06-11 07:29:00,
2013-06-11 03:45:00,65.8,65.2,29.75,North,0,0.0,-999.0,98,-99.99,,,0.00,Acu-Link.com,2013-06-11 07:45:00,
2013-06-11 04:00:00,66.0,65.4,29.75,South,180,0.0,-999.0,98,-99.99,,,0.00,Acu-Link.com,2013-06-11 08:00:00,
2013-06-11 04:15:00,66.4,65.8,29.75,South,180,1.1,-999.0,98,-99.99,,,0.00,Acu-Link.com,2013-06-11 08:15:00,
2013-06-11 04:30:00,66.4,65.8,29.75,SSE,157,0.0,-999.0,98,-99.99,,,0.00,Acu-Link.com,2013-06-11 08:30:00,
2013-06-11 04:46:00,66.7,66.1,29.75,South,180,0.0,-999.0,98,-99.99,,,0.00,Acu-Link.com,2013-06-11 08:46:00,
2013-06-11 05:01:00,66.9,66.3,29.75,South,180,0.0,-999.0,98,-99.99,,,0.00,Acu-Link.com,2013-06-11 09:01:00,
2013-06-11 05:16:00,66.6,66.0,29.75,ENE,67,1.1,-999.0,98,-99.99,,,0.00,Acu-Link.com,2013-06-11 09:16:00,
2013-06-11 05:31:00,66.4,65.8,29.76,ENE,67,0.0,-999.0,98,-99.99,,,0.00,Acu-Link.com,2013-06-11 09:31:00,
2013-06-11 06:02:00,65.5,64.9,29.77,ENE,67,0.0,-999.0,98,-99.99,,,0.00,Acu-Link.com,2013-06-11 10:02:00,
2013-06-11 06:17:00,65.1,64.5,29.77,East,90,0.0,-999.0,98,-99.99,,,0.00,Acu-Link.com,2013-06-11 10:17:00,
2013-06-11 06:32:00,64.8,64.2,29.78,East,90,0.0,-999.0,98,-99.99,,,0.00,Acu-Link.com,2013-06-11 10:32:00,
2013-06-11 06:48:00,64.6,64.0,29.78,East,90,0.0,-999.0,98,-99.99,,,0.00,Acu-Link.com,2013-06-11 10:48:00,
2013-06-11 07:03:00,65.1,64.5,29.78,North,0,0.0,-999.0,98,-99.99,,,0.00,Acu-Link.com,2013-06-11 11:03:00,
2013-06-11 07:18:00,65.7,65.1,29.79,North,0,0.0,-999.0,98,-99.99,,,0.00,Acu-Link.com,2013-06-11 11:18:00,
2013-06-11 07:34:00,66.4,65.8,29.78,SW,225,0.0,-999.0,98,-99.99,,,0.00,Acu-Link.com,2013-06-11 11:34:00,
2013-06-11 07:49:00,67.6,67.0,29.79,SSW,202,1.1,-999.0,98,-99.99,,,0.00,Acu-Link.com,2013-06-11 11:49:00,
2013-06-11 08:04:00,68.4,67.8,29.80,NNE,22,1.7,-999.0,98,-99.99,,,0.00,Acu-Link.com,2013-06-11 12:04:00,
2013-06-11 08:19:00,69.3,68.7,29.79,NNE,22,0.0,-999.0,98,-99.99,,,0.00,Acu-Link.com,2013-06-11 12:19:00,
2013-06-11 08:34:00,70.0,69.4,29.80,SW,225,2.2,-999.0,98,-99.99,,,0.00,Acu-Link.com,2013-06-11 12:34:00,
2013-06-11 08:50:00,70.3,69.7,29.80,WNW,292,1.7,-999.0,98,-99.99,,,0.00,Acu-Link.com,2013-06-11 12:50:00,
2013-06-11 09:05:00,71.2,70.6,29.79,NE,45,1.7,-999.0,98,-99.99,,,0.00,Acu-Link.com,2013-06-11 13:05:00,
2013-06-11 09:20:00,71.6,71.0,29.80,SSE,157,2.7,-999.0,98,-99.99,,,0.00,Acu-Link.com,2013-06-11 13:20:00,
2013-06-11 09:36:00,72.7,72.1,29.81,ESE,112,0.0,-999.0,98,-99.99,,,0.00,Acu-Link.com,2013-06-11 13:36:00,
2013-06-11 09:51:00,73.6,73.0,29.80,SSE,157,1.1,-999.0,98,-99.99,,,0.00,Acu-Link.com,2013-06-11 13:51:00,
2013-06-11 10:22:00,74.7,74.1,29.81,NNW,337,1.7,-999.0,98,-99.99,,,0.00,Acu-Link.com,2013-06-11 14:22:00,
2013-06-11 10:37:00,75.6,75.0,29.79,South,180,2.7,-999.0,98,-99.99,,,0.00,Acu-Link.com,2013-06-11 14:37:00,
2013-06-11 10:52:00,76.1,75.5,29.79,NNE,22,2.7,-999.0,98,-99.99,,,0.00,Acu-Link.com,2013-06-11 14:52:00,
2013-06-11 11:07:00,77.2,76.6,29.80,West,270,1.1,-999.0,98,-99.99,,,0.00,Acu-Link.com,2013-06-11 15:07:00,
2013-06-11 11:23:00,78.1,77.5,29.79,SSE,157,2.7,-999.0,98,-99.99,,,0.00,Acu-Link.com,2013-06-11 15:23:00,
2013-06-11 11:38:00,79.2,78.6,29.80,West,270,1.1,-999.0,98,-99.99,,,0.00,Acu-Link.com,2013-06-11 15:38:00,
2013-06-11 11:53:00,79.3,78.7,29.79,NE,45,2.7,-999.0,98,-99.99,,,0.00,Acu-Link.com,2013-06-11 15:53:00,
2013-06-11 12:08:00,80.4,79.8,29.79,South,180,5.3,-999.0,98,-99.99,,,0.00,Acu-Link.com,2013-06-11 16:08:00,
2013-06-11 12:23:00,81.0,80.4,29.80,SSE,157,2.7,-999.0,98,-99.99,,,0.00,Acu-Link.com,2013-06-11 16:23:00,
2013-06-11 12:39:00,81.9,81.3,29.79,North,0,4.7,-999.0,98,-99.99,,,0.00,Acu-Link.com,2013-06-11 16:39:00,
2013-06-11 12:54:00,82.6,82.0,29.78,SW,225,3.2,-999.0,98,-99.99,,,0.00,Acu-Link.com,2013-06-11 16:54:00,
2013-06-11 13:09:00,83.8,83.2,29.78,SW,225,3.2,-999.0,98,-99.99,,,0.00,Acu-Link.com,2013-06-11 17:09:00,
2013-06-11 13:25:00,86.4,85.8,29.77,South,180,4.2,-999.0,98,-99.99,,,0.00,Acu-Link.com,2013-06-11 17:25:00,
2013-06-11 13:40:00,85.1,84.5,29.77,SW,225,1.7,-999.0,98,-99.99,,,0.00,Acu-Link.com,2013-06-11 17:40:00,
2013-06-11 13:55:00,87.4,85.5,29.77,East,90,2.2,-999.0,94,-99.99,,,0.00,Acu-Link.com,2013-06-11 17:55:00,
2013-06-11 14:10:00,89.1,86.8,29.77,ENE,67,2.7,-999.0,93,-99.99,,,0.00,Acu-Link.com,2013-06-11 18:10:00,
2013-06-11 14:25:00,87.8,79.3,29.77,SSE,157,4.2,-999.0,76,-99.99,,,0.00,Acu-Link.com,2013-06-11 18:25:00,
2013-06-11 14:41:00,88.7,76.7,29.76,South,180,2.7,-999.0,68,-99.99,,,0.00,Acu-Link.com,2013-06-11 18:41:00,
2013-06-11 14:56:00,90.0,73.7,29.78,North,0,5.3,-999.0,59,-99.99,,,0.00,Acu-Link.com,2013-06-11 18:56:00,
2013-06-11 15:11:00,91.9,77.9,29.77,SSW,202,4.2,-999.0,64,-99.99,,,0.00,Acu-Link.com,2013-06-11 19:11:00,
2013-06-11 15:26:00,92.1,69.5,29.77,SSE,157,3.7,-999.0,48,-99.99,,,0.00,Acu-Link.com,2013-06-11 19:26:00,
2013-06-11 15:41:00,92.7,72.5,29.78,South,180,1.7,-999.0,52,-99.99,,,0.00,Acu-Link.com,2013-06-11 19:41:00,
2013-06-11 15:57:00,95.2,71.7,29.76,ENE,67,2.2,-999.0,47,-99.99,,,0.00,Acu-Link.com,2013-06-11 19:57:00,
2013-06-11 16:12:00,92.8,67.6,29.75,South,180,2.2,-999.0,44,-99.99,,,0.00,Acu-Link.com,2013-06-11 20:12:00,
2013-06-11 16:27:00,91.9,70.0,29.77,SW,225,3.2,-999.0,49,-99.99,,,0.00,Acu-Link.com,2013-06-11 20:27:00,
2013-06-11 16:43:00,91.6,69.1,29.76,SSW,202,3.2,-999.0,48,-99.99,,,0.00,Acu-Link.com,2013-06-11 20:43:00,
2013-06-11 16:58:00,89.2,69.2,29.76,South,180,4.2,-999.0,52,-99.99,,,0.00,Acu-Link.com,2013-06-11 20:58:00,
2013-06-11 17:13:00,89.4,72.6,29.76,SSW,202,3.2,-999.0,58,-99.99,,,0.00,Acu-Link.com,2013-06-11 21:13:00,
2013-06-11 17:28:00,88.3,74.1,29.75,North,0,4.7,-999.0,63,-99.99,,,0.00,Acu-Link.com,2013-06-11 21:28:00,
2013-06-11 17:43:00,87.4,72.3,29.76,South,180,2.7,-999.0,61,-99.99,,,0.00,Acu-Link.com,2013-06-11 21:43:00,
2013-06-11 17:58:00,86.0,75.9,29.76,SSE,157,2.7,-999.0,72,-99.99,,,0.00,Acu-Link.com,2013-06-11 21:58:00,
2013-06-11 18:13:00,84.9,83.6,29.75,SSE,157,4.2,-999.0,96,-99.99,,,0.00,Acu-Link.com,2013-06-11 22:13:00,
2013-06-11 18:29:00,84.7,84.1,29.74,SE,135,2.7,-999.0,98,-99.99,,,0.00,Acu-Link.com,2013-06-11 22:29:00,
2013-06-11 18:44:00,84.7,84.1,29.74,SSW,202,1.7,-999.0,98,-99.99,,,0.00,Acu-Link.com,2013-06-11 22:44:00,
2013-06-11 18:59:00,84.2,83.6,29.74,SSW,202,2.7,-999.0,98,-99.99,,,0.00,Acu-Link.com,2013-06-11 22:59:00,
2013-06-11 19:14:00,83.8,83.2,29.74,South,180,1.7,-999.0,98,-99.99,,,0.00,Acu-Link.com,2013-06-11 23:14:00,
2013-06-11 19:29:00,83.3,82.7,29.73,SSE,157,3.7,-999.0,98,-99.99,,,0.00,Acu-Link.com,2013-06-11 23:29:00,
2013-06-11 19:45:00,82.8,82.2,29.73,SSW,202,2.2,-999.0,98,-99.99,,,0.00,Acu-Link.com,2013-06-11 23:45:00,
2013-06-11 20:00:00,82.0,81.4,29.73,SSE,157,0.0,-999.0,98,-99.99,,,0.00,Acu-Link.com,2013-06-12 00:00:00,
2013-06-11 20:15:00,81.0,80.4,29.75,SE,135,0.0,-999.0,98,-99.99,,,0.00,Acu-Link.com,2013-06-12 00:15:00,
2013-06-11 20:31:00,79.3,78.7,29.74,SSE,157,0.0,-999.0,98,-99.99,,,0.00,Acu-Link.com,2013-06-12 00:31:00,
2013-06-11 20:46:00,77.9,77.3,29.75,South,180,0.0,-999.0,98,-99.99,,,0.00,Acu-Link.com,2013-06-12 00:46:00,
2013-06-11 21:01:00,76.5,75.9,29.75,South,180,0.0,-999.0,98,-99.99,,,0.00,Acu-Link.com,2013-06-12 01:01:00,
2013-06-11 21:17:00,75.0,74.4,29.76,South,180,0.0,-999.0,98,-99.99,,,0.00,Acu-Link.com,2013-06-12 01:17:00,
2013-06-11 21:32:00,73.9,73.3,29.77,South,180,0.0,-999.0,98,-99.99,,,0.00,Acu-Link.com,2013-06-12 01:32:00,
2013-06-11 22:02:00,72.9,72.3,29.78,SSW,202,0.0,-999.0,98,-99.99,,,0.00,Acu-Link.com,2013-06-12 02:02:00,
2013-06-11 22:18:00,72.0,71.4,29.79,South,180,0.0,-999.0,98,-99.99,,,0.00,Acu-Link.com,2013-06-12 02:18:00,
2013-06-11 22:33:00,71.6,71.0,29.79,WNW,292,0.0,-999.0,98,-99.99,,,0.00,Acu-Link.com,2013-06-12 02:33:00,
2013-06-11 22:48:00,71.2,70.6,29.80,NNW,337,0.0,-999.0,98,-99.99,,,0.00,Acu-Link.com,2013-06-12 02:48:00,
2013-06-11 23:04:00,70.9,70.3,29.80,NW,315,0.0,-999.0,98,-99.99,,,0.00,Acu-Link.com,2013-06-12 03:04:00,
2013-06-11 23:19:00,70.5,69.9,29.79,ENE,67,0.0,-999.0,98,-99.99,,,0.00,Acu-Link.com,2013-06-12 03:19:00,
2013-06-11 23:34:00,70.5,69.9,29.78,NNW,337,0.0,-999.0,98,-99.99,,,0.00,Acu-Link.com,2013-06-12 03:34:00,
2013-06-11 23:50:00,70.5,69.9,29.78,NNW,337,0.0,-999.0,98,-99.99,,,0.00,Acu-Link.com,2013-06-12 03:50:00,